owner,sensor,date,latitude,longitude,vertical_datum,sea_water_temperature,qcFlag 
TABS,ioos:station:wmo:42047:1,2009-07-15T19:00:00Z,27.8966,-93.5973,-2.0,0.0,2 
TABS,ioos:station:wmo:42047:1,2009-07-15T19:30:00Z,27.8966,-93.5973,-2.0,0.0,2 
TABS,ioos:station:wmo:42047:1,2009-07-15T20:00:00Z,27.8966,-93.5973,-2.0,0.0,2 
TABS,ioos:station:wmo:42047:1,2009-07-15T20:30:00Z,27.8966,-93.5973,-2.0,0.0,2 
TABS,ioos:station:wmo:42047:1,2009-07-15T21:00:00Z,27.8966,-93.5973,-2.0,0.0,2 
TABS,ioos:station:wmo:42047:1,2009-07-15T21:30:00Z,27.8966,-93.5973,-2.0,0.0,2 
TABS,ioos:station:wmo:42047:1,2009-07-15T22:00:00Z,27.8966,-93.5973,-2.0,0.0,2 
TABS,ioos:station:wmo:42047:1,2009-07-15T22:30:00Z,27.8966,-93.5973,-2.0,0.0,2 
TABS,ioos:station:wmo:42047:1,2009-07-15T23:00:00Z,27.8966,-93.5973,-2.0,0.0,2 
TABS,ioos:station:wmo:42047:1,2009-07-15T23:30:00Z,27.8966,-93.5973,-2.0,0.0,2 
TABS,ioos:station:wmo:42047:1,2009-07-16T00:00:00Z,27.8966,-93.5973,-2.0,39.51,2 
TABS,ioos:station:wmo:42047:1,2009-07-16T00:30:00Z,27.8966,-93.5973,-2.0,38.57,2 
TABS,ioos:station:wmo:42047:1,2009-07-16T01:00:00Z,27.8966,-93.5973,-2.0,37.3,2 
TABS,ioos:station:wmo:42047:1,2009-07-16T01:30:00Z,27.8966,-93.5973,-2.0,35.93,2 
TABS,ioos:station:wmo:42047:1,2009-07-16T02:00:00Z,27.8966,-93.5973,-2.0,34.69,2 
TABS,ioos:station:wmo:42047:1,2009-07-16T02:30:00Z,27.8966,-93.5973,-2.0,33.78,2 
TABS,ioos:station:wmo:42047:1,2009-07-16T03:00:00Z,27.8966,-93.5973,-2.0,33.03,2 
TABS,ioos:station:wmo:42047:1,2009-07-16T03:30:00Z,27.8966,-93.5973,-2.0,32.35,2 
TABS,ioos:station:wmo:42047:1,2009-07-16T04:00:00Z,27.8966,-93.5973,-2.0,31.7,2 
TABS,ioos:station:wmo:42047:1,2009-07-16T04:30:00Z,27.8966,-93.5973,-2.0,31.12,2 
TABS,ioos:station:wmo:42047:1,2009-07-16T05:00:00Z,27.8966,-93.5973,-2.0,30.6,2 
TABS,ioos:station:wmo:42047:1,2009-07-16T05:30:00Z,27.8966,-93.5973,-2.0,30.12,2 
TABS,ioos:station:wmo:42047:1,2009-07-16T06:00:00Z,27.8966,-93.5973,-2.0,29.66,2 
TABS,ioos:station:wmo:42047:1,2009-07-16T06:30:00Z,27.8966,-93.5973,-2.0,29.23,2 
TABS,ioos:station:wmo:42047:1,2009-07-16T07:00:00Z,27.8966,-93.5973,-2.0,28.82,2 
TABS,ioos:station:wmo:42047:1,2009-07-16T07:30:00Z,27.8966,-93.5973,-2.0,28.42,2 
TABS,ioos:station:wmo:42047:1,2009-07-16T08:00:00Z,27.8966,-93.5973,-2.0,28.08,2 
TABS,ioos:station:wmo:42047:1,2009-07-16T08:30:00Z,27.8966,-93.5973,-2.0,27.76,2 
TABS,ioos:station:wmo:42047:1,2009-07-16T09:00:00Z,27.8966,-93.5973,-2.0,27.47,2 
TABS,ioos:station:wmo:42047:1,2009-07-16T09:30:00Z,27.8966,-93.5973,-2.0,27.2,2 
TABS,ioos:station:wmo:42047:1,2009-07-16T10:00:00Z,27.8966,-93.5973,-2.0,26.92,2 
TABS,ioos:station:wmo:42047:1,2009-07-16T10:30:00Z,27.8966,-93.5973,-2.0,26.67,2 
TABS,ioos:station:wmo:42047:1,2009-07-16T11:00:00Z,27.8966,-93.5973,-2.0,26.47,2 
TABS,ioos:station:wmo:42047:1,2009-07-16T11:30:00Z,27.8966,-93.5973,-2.0,26.23,2 
TABS,ioos:station:wmo:42047:1,2009-07-16T12:00:00Z,27.8966,-93.5973,-2.0,26.06,2 
TABS,ioos:station:wmo:42047:1,2009-07-16T12:30:00Z,27.8966,-93.5973,-2.0,25.95,2 
TABS,ioos:station:wmo:42047:1,2009-07-16T13:00:00Z,27.8966,-93.5973,-2.0,25.91,2 
TABS,ioos:station:wmo:42047:1,2009-07-16T13:30:00Z,27.8966,-93.5973,-2.0,25.97,2 
TABS,ioos:station:wmo:42047:1,2009-07-16T14:00:00Z,27.8966,-93.5973,-2.0,26.13,2 
TABS,ioos:station:wmo:42047:1,2009-07-16T14:30:00Z,27.8966,-93.5973,-2.0,26.43,2 
TABS,ioos:station:wmo:42047:1,2009-07-16T15:00:00Z,27.8966,-93.5973,-2.0,26.82,2 
TABS,ioos:station:wmo:42047:1,2009-07-16T15:30:00Z,27.8966,-93.5973,-2.0,27.26,2 
TABS,ioos:station:wmo:42047:1,2009-07-16T16:00:00Z,27.8966,-93.5973,-2.0,27.61,2 
TABS,ioos:station:wmo:42047:1,2009-07-16T16:30:00Z,27.8966,-93.5973,-2.0,28.08,2 
TABS,ioos:station:wmo:42047:1,2009-07-16T17:00:00Z,27.8966,-93.5973,-2.0,28.63,2 
TABS,ioos:station:wmo:42047:1,2009-07-16T17:30:00Z,27.8966,-93.5973,-2.0,29.26,2 
TABS,ioos:station:wmo:42047:1,2009-07-16T18:00:00Z,27.8966,-93.5973,-2.0,29.88,2 
TABS,ioos:station:wmo:42047:1,2009-07-16T18:30:00Z,27.8966,-93.5973,-2.0,30.38,2 
TABS,ioos:station:wmo:42047:1,2009-07-16T19:00:00Z,27.8966,-93.5973,-2.0,30.91,2 
TABS,ioos:station:wmo:42047:1,2009-07-16T19:30:00Z,27.8966,-93.5973,-2.0,31.48,2 
TABS,ioos:station:wmo:42047:1,2009-07-16T20:00:00Z,27.8966,-93.5973,-2.0,32.17,2 
TABS,ioos:station:wmo:42047:1,2009-07-16T20:30:00Z,27.8966,-93.5973,-2.0,32.83,2 
TABS,ioos:station:wmo:42047:1,2009-07-16T21:00:00Z,27.8966,-93.5973,-2.0,33.83,2 
TABS,ioos:station:wmo:42047:1,2009-07-16T21:30:00Z,27.8966,-93.5973,-2.0,34.82,2 
TABS,ioos:station:wmo:42047:1,2009-07-16T22:00:00Z,27.8966,-93.5973,-2.0,36.03,2 
TABS,ioos:station:wmo:42047:1,2009-07-16T22:30:00Z,27.8966,-93.5973,-2.0,36.71,2 
TABS,ioos:station:wmo:42047:1,2009-07-16T23:00:00Z,27.8966,-93.5973,-2.0,37.13,2 
TABS,ioos:station:wmo:42047:1,2009-07-16T23:30:00Z,27.8966,-93.5973,-2.0,37.5,2 
TABS,ioos:station:wmo:42047:1,2009-07-17T01:00:00Z,27.8966,-93.5973,-2.0,36.91,2 
TABS,ioos:station:wmo:42047:1,2009-07-17T01:30:00Z,27.8966,-93.5973,-2.0,36.08,2 
TABS,ioos:station:wmo:42047:1,2009-07-17T02:00:00Z,27.8966,-93.5973,-2.0,35.13,2 
TABS,ioos:station:wmo:42047:1,2009-07-17T02:30:00Z,27.8966,-93.5973,-2.0,34.21,2 
TABS,ioos:station:wmo:42047:1,2009-07-17T03:00:00Z,27.8966,-93.5973,-2.0,33.36,2 
TABS,ioos:station:wmo:42047:1,2009-07-17T03:30:00Z,27.8966,-93.5973,-2.0,32.54,2 
TABS,ioos:station:wmo:42047:1,2009-07-17T04:00:00Z,27.8966,-93.5973,-2.0,31.77,2 
TABS,ioos:station:wmo:42047:1,2009-07-17T04:30:00Z,27.8966,-93.5973,-2.0,31.07,2 
TABS,ioos:station:wmo:42047:1,2009-07-17T05:00:00Z,27.8966,-93.5973,-2.0,30.45,2 
TABS,ioos:station:wmo:42047:1,2009-07-17T05:30:00Z,27.8966,-93.5973,-2.0,29.86,2 
TABS,ioos:station:wmo:42047:1,2009-07-17T06:00:00Z,27.8966,-93.5973,-2.0,29.36,2 
TABS,ioos:station:wmo:42047:1,2009-07-17T06:30:00Z,27.8966,-93.5973,-2.0,28.93,2 
TABS,ioos:station:wmo:42047:1,2009-07-17T07:00:00Z,27.8966,-93.5973,-2.0,28.52,2 
TABS,ioos:station:wmo:42047:1,2009-07-17T07:30:00Z,27.8966,-93.5973,-2.0,28.15,2 
TABS,ioos:station:wmo:42047:1,2009-07-17T08:00:00Z,27.8966,-93.5973,-2.0,27.82,2 
TABS,ioos:station:wmo:42047:1,2009-07-17T08:30:00Z,27.8966,-93.5973,-2.0,27.51,2 
TABS,ioos:station:wmo:42047:1,2009-07-17T09:00:00Z,27.8966,-93.5973,-2.0,27.22,2 
TABS,ioos:station:wmo:42047:1,2009-07-17T09:30:00Z,27.8966,-93.5973,-2.0,27.0,2 
TABS,ioos:station:wmo:42047:1,2009-07-17T10:00:00Z,27.8966,-93.5973,-2.0,26.78,2 
TABS,ioos:station:wmo:42047:1,2009-07-17T10:30:00Z,27.8966,-93.5973,-2.0,26.56,2 
TABS,ioos:station:wmo:42047:1,2009-07-17T11:00:00Z,27.8966,-93.5973,-2.0,26.33,2 
TABS,ioos:station:wmo:42047:1,2009-07-17T11:30:00Z,27.8966,-93.5973,-2.0,26.12,2 
TABS,ioos:station:wmo:42047:1,2009-07-17T12:00:00Z,27.8966,-93.5973,-2.0,25.99,2 
TABS,ioos:station:wmo:42047:1,2009-07-17T12:30:00Z,27.8966,-93.5973,-2.0,25.9,2 
TABS,ioos:station:wmo:42047:1,2009-07-17T14:00:00Z,27.8966,-93.5973,-2.0,25.74,2 
TABS,ioos:station:wmo:42047:1,2009-07-17T14:30:00Z,27.8966,-93.5973,-2.0,25.72,2 
TABS,ioos:station:wmo:42047:1,2009-07-17T15:00:00Z,27.8966,-93.5973,-2.0,25.28,2 
TABS,ioos:station:wmo:42047:1,2009-07-17T15:30:00Z,27.8966,-93.5973,-2.0,24.57,2 
TABS,ioos:station:wmo:42047:1,2009-07-17T16:00:00Z,27.8966,-93.5973,-2.0,24.06,2 
TABS,ioos:station:wmo:42047:1,2009-07-17T16:30:00Z,27.8966,-93.5973,-2.0,23.83,2 
TABS,ioos:station:wmo:42047:1,2009-07-17T17:00:00Z,27.8966,-93.5973,-2.0,23.83,2 
TABS,ioos:station:wmo:42047:1,2009-07-17T17:30:00Z,27.8966,-93.5973,-2.0,24.07,2 
TABS,ioos:station:wmo:42047:1,2009-07-17T18:00:00Z,27.8966,-93.5973,-2.0,24.58,2 
TABS,ioos:station:wmo:42047:1,2009-07-17T18:30:00Z,27.8966,-93.5973,-2.0,25.32,2 
TABS,ioos:station:wmo:42047:1,2009-07-17T19:00:00Z,27.8966,-93.5973,-2.0,26.17,2 
TABS,ioos:station:wmo:42047:1,2009-07-17T19:30:00Z,27.8966,-93.5973,-2.0,27.15,2 
TABS,ioos:station:wmo:42047:1,2009-07-17T20:00:00Z,27.8966,-93.5973,-2.0,28.4,2 
TABS,ioos:station:wmo:42047:1,2009-07-17T20:30:00Z,27.8966,-93.5973,-2.0,29.75,2 
TABS,ioos:station:wmo:42047:1,2009-07-17T21:00:00Z,27.8966,-93.5973,-2.0,31.3,2 
TABS,ioos:station:wmo:42047:1,2009-07-17T21:30:00Z,27.8966,-93.5973,-2.0,32.69,2 
TABS,ioos:station:wmo:42047:1,2009-07-17T22:00:00Z,27.8966,-93.5973,-2.0,33.8,2 
TABS,ioos:station:wmo:42047:1,2009-07-17T22:30:00Z,27.8966,-93.5973,-2.0,34.59,2 
TABS,ioos:station:wmo:42047:1,2009-07-17T23:00:00Z,27.8966,-93.5973,-2.0,34.95,2 
TABS,ioos:station:wmo:42047:1,2009-07-17T23:30:00Z,27.8966,-93.5973,-2.0,34.86,2 
TABS,ioos:station:wmo:42047:1,2009-07-18T01:00:00Z,27.8966,-93.5973,-2.0,33.15,2 
TABS,ioos:station:wmo:42047:1,2009-07-18T01:30:00Z,27.8966,-93.5973,-2.0,32.14,2 
TABS,ioos:station:wmo:42047:1,2009-07-18T02:00:00Z,27.8966,-93.5973,-2.0,31.2,2 
TABS,ioos:station:wmo:42047:1,2009-07-18T02:30:00Z,27.8966,-93.5973,-2.0,30.51,2 
TABS,ioos:station:wmo:42047:1,2009-07-18T03:00:00Z,27.8966,-93.5973,-2.0,29.94,2 
TABS,ioos:station:wmo:42047:1,2009-07-18T03:30:00Z,27.8966,-93.5973,-2.0,29.49,2 
TABS,ioos:station:wmo:42047:1,2009-07-18T04:00:00Z,27.8966,-93.5973,-2.0,29.16,2 
TABS,ioos:station:wmo:42047:1,2009-07-18T04:30:00Z,27.8966,-93.5973,-2.0,28.84,2 
TABS,ioos:station:wmo:42047:1,2009-07-18T05:00:00Z,27.8966,-93.5973,-2.0,28.5,2 
TABS,ioos:station:wmo:42047:1,2009-07-18T05:30:00Z,27.8966,-93.5973,-2.0,28.1,2 
TABS,ioos:station:wmo:42047:1,2009-07-18T06:00:00Z,27.8966,-93.5973,-2.0,27.68,2 
TABS,ioos:station:wmo:42047:1,2009-07-18T06:30:00Z,27.8966,-93.5973,-2.0,27.24,2 
TABS,ioos:station:wmo:42047:1,2009-07-18T07:00:00Z,27.8966,-93.5973,-2.0,26.84,2 
TABS,ioos:station:wmo:42047:1,2009-07-18T07:30:00Z,27.8966,-93.5973,-2.0,26.53,2 
TABS,ioos:station:wmo:42047:1,2009-07-18T08:00:00Z,27.8966,-93.5973,-2.0,26.24,2 
TABS,ioos:station:wmo:42047:1,2009-07-18T08:30:00Z,27.8966,-93.5973,-2.0,25.99,2 
TABS,ioos:station:wmo:42047:1,2009-07-18T09:00:00Z,27.8966,-93.5973,-2.0,25.74,2 
TABS,ioos:station:wmo:42047:1,2009-07-18T09:30:00Z,27.8966,-93.5973,-2.0,25.47,2 
TABS,ioos:station:wmo:42047:1,2009-07-18T10:00:00Z,27.8966,-93.5973,-2.0,25.22,2 
TABS,ioos:station:wmo:42047:1,2009-07-18T10:30:00Z,27.8966,-93.5973,-2.0,24.97,2 
TABS,ioos:station:wmo:42047:1,2009-07-18T11:00:00Z,27.8966,-93.5973,-2.0,24.73,2 
TABS,ioos:station:wmo:42047:1,2009-07-18T11:30:00Z,27.8966,-93.5973,-2.0,24.51,2 
TABS,ioos:station:wmo:42047:1,2009-07-18T12:00:00Z,27.8966,-93.5973,-2.0,24.33,2 
TABS,ioos:station:wmo:42047:1,2009-07-18T12:30:00Z,27.8966,-93.5973,-2.0,24.26,2 
TABS,ioos:station:wmo:42047:1,2009-07-18T13:00:00Z,27.8966,-93.5973,-2.0,24.27,2 
TABS,ioos:station:wmo:42047:1,2009-07-18T13:30:00Z,27.8966,-93.5973,-2.0,24.38,2 
TABS,ioos:station:wmo:42047:1,2009-07-18T14:00:00Z,27.8966,-93.5973,-2.0,24.63,2 
TABS,ioos:station:wmo:42047:1,2009-07-18T14:30:00Z,27.8966,-93.5973,-2.0,25.09,2 
TABS,ioos:station:wmo:42047:1,2009-07-18T15:00:00Z,27.8966,-93.5973,-2.0,25.73,2 
TABS,ioos:station:wmo:42047:1,2009-07-18T15:30:00Z,27.8966,-93.5973,-2.0,26.42,2 
TABS,ioos:station:wmo:42047:1,2009-07-18T16:00:00Z,27.8966,-93.5973,-2.0,27.11,2 
TABS,ioos:station:wmo:42047:1,2009-07-18T16:30:00Z,27.8966,-93.5973,-2.0,27.87,2 
TABS,ioos:station:wmo:42047:1,2009-07-18T17:00:00Z,27.8966,-93.5973,-2.0,28.69,2 
TABS,ioos:station:wmo:42047:1,2009-07-18T17:30:00Z,27.8966,-93.5973,-2.0,29.59,2 
TABS,ioos:station:wmo:42047:1,2009-07-18T18:00:00Z,27.8966,-93.5973,-2.0,30.3,2 
TABS,ioos:station:wmo:42047:1,2009-07-18T18:30:00Z,27.8966,-93.5973,-2.0,30.8,2 
TABS,ioos:station:wmo:42047:1,2009-07-18T19:00:00Z,27.8966,-93.5973,-2.0,31.21,2 
TABS,ioos:station:wmo:42047:1,2009-07-18T19:30:00Z,27.8966,-93.5973,-2.0,31.65,2 
TABS,ioos:station:wmo:42047:1,2009-07-18T20:00:00Z,27.8966,-93.5973,-2.0,32.82,2 
TABS,ioos:station:wmo:42047:1,2009-07-18T20:30:00Z,27.8966,-93.5973,-2.0,33.61,2 
TABS,ioos:station:wmo:42047:1,2009-07-18T21:00:00Z,27.8966,-93.5973,-2.0,34.1,2 
TABS,ioos:station:wmo:42047:1,2009-07-18T21:30:00Z,27.8966,-93.5973,-2.0,34.3,2 
TABS,ioos:station:wmo:42047:1,2009-07-18T22:00:00Z,27.8966,-93.5973,-2.0,34.18,2 
TABS,ioos:station:wmo:42047:1,2009-07-18T22:30:00Z,27.8966,-93.5973,-2.0,34.4,2 
TABS,ioos:station:wmo:42047:1,2009-07-18T23:00:00Z,27.8966,-93.5973,-2.0,34.77,2 
TABS,ioos:station:wmo:42047:1,2009-07-18T23:30:00Z,27.8966,-93.5973,-2.0,34.61,2 
TABS,ioos:station:wmo:42047:1,2009-07-19T00:00:00Z,27.8966,-93.5973,-2.0,33.45,2 
TABS,ioos:station:wmo:42047:1,2009-07-19T00:30:00Z,27.8966,-93.5973,-2.0,32.47,2 
TABS,ioos:station:wmo:42047:1,2009-07-19T01:00:00Z,27.8966,-93.5973,-2.0,31.4,2 
TABS,ioos:station:wmo:42047:1,2009-07-19T01:30:00Z,27.8966,-93.5973,-2.0,30.36,2 
TABS,ioos:station:wmo:42047:1,2009-07-19T02:00:00Z,27.8966,-93.5973,-2.0,29.26,2 
TABS,ioos:station:wmo:42047:1,2009-07-19T02:30:00Z,27.8966,-93.5973,-2.0,28.3,2 
TABS,ioos:station:wmo:42047:1,2009-07-19T03:00:00Z,27.8966,-93.5973,-2.0,27.51,2 
TABS,ioos:station:wmo:42047:1,2009-07-19T03:30:00Z,27.8966,-93.5973,-2.0,26.89,2 
TABS,ioos:station:wmo:42047:1,2009-07-19T04:00:00Z,27.8966,-93.5973,-2.0,26.43,2 
TABS,ioos:station:wmo:42047:1,2009-07-19T04:30:00Z,27.8966,-93.5973,-2.0,26.06,2 
TABS,ioos:station:wmo:42047:1,2009-07-19T05:00:00Z,27.8966,-93.5973,-2.0,25.75,2 
TABS,ioos:station:wmo:42047:1,2009-07-19T05:30:00Z,27.8966,-93.5973,-2.0,25.45,2 
TABS,ioos:station:wmo:42047:1,2009-07-19T06:00:00Z,27.8966,-93.5973,-2.0,25.18,2 
TABS,ioos:station:wmo:42047:1,2009-07-19T06:30:00Z,27.8966,-93.5973,-2.0,24.91,2 
TABS,ioos:station:wmo:42047:1,2009-07-19T07:00:00Z,27.8966,-93.5973,-2.0,24.67,2 
TABS,ioos:station:wmo:42047:1,2009-07-19T07:30:00Z,27.8966,-93.5973,-2.0,24.43,2 
TABS,ioos:station:wmo:42047:1,2009-07-19T08:00:00Z,27.8966,-93.5973,-2.0,24.18,2 
TABS,ioos:station:wmo:42047:1,2009-07-19T08:30:00Z,27.8966,-93.5973,-2.0,23.92,2 
TABS,ioos:station:wmo:42047:1,2009-07-19T09:00:00Z,27.8966,-93.5973,-2.0,23.7,2 
TABS,ioos:station:wmo:42047:1,2009-07-19T09:30:00Z,27.8966,-93.5973,-2.0,23.49,2 
TABS,ioos:station:wmo:42047:1,2009-07-19T10:00:00Z,27.8966,-93.5973,-2.0,23.31,2 
TABS,ioos:station:wmo:42047:1,2009-07-19T10:30:00Z,27.8966,-93.5973,-2.0,23.16,2 
TABS,ioos:station:wmo:42047:1,2009-07-19T11:00:00Z,27.8966,-93.5973,-2.0,23.04,2 
TABS,ioos:station:wmo:42047:1,2009-07-19T11:30:00Z,27.8966,-93.5973,-2.0,22.94,2 
TABS,ioos:station:wmo:42047:1,2009-07-19T12:00:00Z,27.8966,-93.5973,-2.0,22.87,2 
TABS,ioos:station:wmo:42047:1,2009-07-19T12:30:00Z,27.8966,-93.5973,-2.0,22.86,2 
TABS,ioos:station:wmo:42047:1,2009-07-19T13:00:00Z,27.8966,-93.5973,-2.0,22.91,2 
TABS,ioos:station:wmo:42047:1,2009-07-19T13:30:00Z,27.8966,-93.5973,-2.0,23.09,2 
TABS,ioos:station:wmo:42047:1,2009-07-19T14:00:00Z,27.8966,-93.5973,-2.0,23.41,2 
TABS,ioos:station:wmo:42047:1,2009-07-19T14:30:00Z,27.8966,-93.5973,-2.0,23.91,2 
TABS,ioos:station:wmo:42047:1,2009-07-19T15:00:00Z,27.8966,-93.5973,-2.0,24.61,2 
TABS,ioos:station:wmo:42047:1,2009-07-19T15:30:00Z,27.8966,-93.5973,-2.0,25.35,2 
TABS,ioos:station:wmo:42047:1,2009-07-19T16:00:00Z,27.8966,-93.5973,-2.0,26.11,2 
TABS,ioos:station:wmo:42047:1,2009-07-19T16:30:00Z,27.8966,-93.5973,-2.0,26.88,2 
TABS,ioos:station:wmo:42047:1,2009-07-19T17:00:00Z,27.8966,-93.5973,-2.0,27.69,2 
TABS,ioos:station:wmo:42047:1,2009-07-19T17:30:00Z,27.8966,-93.5973,-2.0,28.5,2 
TABS,ioos:station:wmo:42047:1,2009-07-19T18:00:00Z,27.8966,-93.5973,-2.0,29.21,2 
TABS,ioos:station:wmo:42047:1,2009-07-19T18:30:00Z,27.8966,-93.5973,-2.0,29.88,2 
TABS,ioos:station:wmo:42047:1,2009-07-19T19:00:00Z,27.8966,-93.5973,-2.0,30.56,2 
TABS,ioos:station:wmo:42047:1,2009-07-19T19:30:00Z,27.8966,-93.5973,-2.0,31.18,2 
TABS,ioos:station:wmo:42047:1,2009-07-19T20:00:00Z,27.8966,-93.5973,-2.0,32.29,2 
TABS,ioos:station:wmo:42047:1,2009-07-19T20:30:00Z,27.8966,-93.5973,-2.0,33.57,2 
TABS,ioos:station:wmo:42047:1,2009-07-19T21:00:00Z,27.8966,-93.5973,-2.0,34.63,2 
TABS,ioos:station:wmo:42047:1,2009-07-19T21:30:00Z,27.8966,-93.5973,-2.0,35.3,2 
TABS,ioos:station:wmo:42047:1,2009-07-19T22:00:00Z,27.8966,-93.5973,-2.0,36.14,2 
TABS,ioos:station:wmo:42047:1,2009-07-19T22:30:00Z,27.8966,-93.5973,-2.0,36.75,2 
TABS,ioos:station:wmo:42047:1,2009-07-19T23:00:00Z,27.8966,-93.5973,-2.0,36.7,2 
TABS,ioos:station:wmo:42047:1,2009-07-19T23:30:00Z,27.8966,-93.5973,-2.0,36.13,2 
TABS,ioos:station:wmo:42047:1,2009-07-20T01:00:00Z,27.8966,-93.5973,-2.0,28.47,2 
TABS,ioos:station:wmo:42047:1,2009-07-20T01:30:00Z,27.8966,-93.5973,-2.0,27.8,2 
TABS,ioos:station:wmo:42047:1,2009-07-20T02:00:00Z,27.8966,-93.5973,-2.0,27.08,2 
TABS,ioos:station:wmo:42047:1,2009-07-20T02:30:00Z,27.8966,-93.5973,-2.0,26.57,2 
TABS,ioos:station:wmo:42047:1,2009-07-20T03:00:00Z,27.8966,-93.5973,-2.0,26.21,2 
TABS,ioos:station:wmo:42047:1,2009-07-20T03:30:00Z,27.8966,-93.5973,-2.0,25.95,2 
TABS,ioos:station:wmo:42047:1,2009-07-20T04:00:00Z,27.8966,-93.5973,-2.0,25.72,2 
TABS,ioos:station:wmo:42047:1,2009-07-20T04:30:00Z,27.8966,-93.5973,-2.0,25.5,2 
TABS,ioos:station:wmo:42047:1,2009-07-20T05:00:00Z,27.8966,-93.5973,-2.0,25.3,2 
TABS,ioos:station:wmo:42047:1,2009-07-20T05:30:00Z,27.8966,-93.5973,-2.0,25.09,2 
TABS,ioos:station:wmo:42047:1,2009-07-20T06:00:00Z,27.8966,-93.5973,-2.0,24.92,2 
TABS,ioos:station:wmo:42047:1,2009-07-20T06:30:00Z,27.8966,-93.5973,-2.0,24.8,2 
TABS,ioos:station:wmo:42047:1,2009-07-20T07:00:00Z,27.8966,-93.5973,-2.0,24.71,2 
TABS,ioos:station:wmo:42047:1,2009-07-20T07:30:00Z,27.8966,-93.5973,-2.0,24.64,2 
TABS,ioos:station:wmo:42047:1,2009-07-20T08:00:00Z,27.8966,-93.5973,-2.0,24.59,2 
TABS,ioos:station:wmo:42047:1,2009-07-20T08:30:00Z,27.8966,-93.5973,-2.0,24.57,2 
TABS,ioos:station:wmo:42047:1,2009-07-20T09:00:00Z,27.8966,-93.5973,-2.0,24.55,2 
TABS,ioos:station:wmo:42047:1,2009-07-20T09:30:00Z,27.8966,-93.5973,-2.0,24.54,2 
TABS,ioos:station:wmo:42047:1,2009-07-20T10:00:00Z,27.8966,-93.5973,-2.0,24.52,2 
TABS,ioos:station:wmo:42047:1,2009-07-20T10:30:00Z,27.8966,-93.5973,-2.0,24.54,2 
TABS,ioos:station:wmo:42047:1,2009-07-20T11:00:00Z,27.8966,-93.5973,-2.0,24.53,2 
TABS,ioos:station:wmo:42047:1,2009-07-20T11:30:00Z,27.8966,-93.5973,-2.0,24.52,2 
TABS,ioos:station:wmo:42047:1,2009-07-20T12:00:00Z,27.8966,-93.5973,-2.0,24.51,2 
TABS,ioos:station:wmo:42047:1,2009-07-20T12:30:00Z,27.8966,-93.5973,-2.0,24.51,2 
TABS,ioos:station:wmo:42047:1,2009-07-20T13:00:00Z,27.8966,-93.5973,-2.0,24.55,2 
TABS,ioos:station:wmo:42047:1,2009-07-20T13:30:00Z,27.8966,-93.5973,-2.0,24.63,2 
TABS,ioos:station:wmo:42047:1,2009-07-20T14:00:00Z,27.8966,-93.5973,-2.0,24.78,2 
TABS,ioos:station:wmo:42047:1,2009-07-20T14:30:00Z,27.8966,-93.5973,-2.0,25.01,2 
TABS,ioos:station:wmo:42047:1,2009-07-20T15:00:00Z,27.8966,-93.5973,-2.0,25.39,2 
TABS,ioos:station:wmo:42047:1,2009-07-20T15:30:00Z,27.8966,-93.5973,-2.0,25.96,2 
TABS,ioos:station:wmo:42047:1,2009-07-20T16:00:00Z,27.8966,-93.5973,-2.0,26.57,2 
TABS,ioos:station:wmo:42047:1,2009-07-20T16:30:00Z,27.8966,-93.5973,-2.0,27.21,2 
TABS,ioos:station:wmo:42047:1,2009-07-20T17:00:00Z,27.8966,-93.5973,-2.0,27.94,2 
TABS,ioos:station:wmo:42047:1,2009-07-20T17:30:00Z,27.8966,-93.5973,-2.0,28.69,2 
TABS,ioos:station:wmo:42047:1,2009-07-20T18:00:00Z,27.8966,-93.5973,-2.0,29.42,2 
TABS,ioos:station:wmo:42047:1,2009-07-20T18:30:00Z,27.8966,-93.5973,-2.0,30.12,2 
TABS,ioos:station:wmo:42047:1,2009-07-20T19:00:00Z,27.8966,-93.5973,-2.0,30.61,2 
TABS,ioos:station:wmo:42047:1,2009-07-20T19:30:00Z,27.8966,-93.5973,-2.0,31.32,2 
TABS,ioos:station:wmo:42047:1,2009-07-20T20:00:00Z,27.8966,-93.5973,-2.0,31.87,2 
TABS,ioos:station:wmo:42047:1,2009-07-20T20:30:00Z,27.8966,-93.5973,-2.0,31.95,2 
TABS,ioos:station:wmo:42047:1,2009-07-20T21:00:00Z,27.8966,-93.5973,-2.0,31.75,2 
TABS,ioos:station:wmo:42047:1,2009-07-20T21:30:00Z,27.8966,-93.5973,-2.0,31.47,2 
TABS,ioos:station:wmo:42047:1,2009-07-20T22:00:00Z,27.8966,-93.5973,-2.0,31.49,2 
TABS,ioos:station:wmo:42047:1,2009-07-20T22:30:00Z,27.8966,-93.5973,-2.0,31.97,2 
TABS,ioos:station:wmo:42047:1,2009-07-20T23:00:00Z,27.8966,-93.5973,-2.0,32.03,2 
TABS,ioos:station:wmo:42047:1,2009-07-20T23:30:00Z,27.8966,-93.5973,-2.0,31.88,2 
TABS,ioos:station:wmo:42047:1,2009-07-21T00:00:00Z,27.8966,-93.5973,-2.0,31.5,2 
TABS,ioos:station:wmo:42047:1,2009-07-21T00:30:00Z,27.8966,-93.5973,-2.0,30.22,2 
TABS,ioos:station:wmo:42047:1,2009-07-21T01:00:00Z,27.8966,-93.5973,-2.0,29.0,2 
TABS,ioos:station:wmo:42047:1,2009-07-21T01:30:00Z,27.8966,-93.5973,-2.0,27.81,2 
TABS,ioos:station:wmo:42047:1,2009-07-21T02:00:00Z,27.8966,-93.5973,-2.0,26.91,2 
TABS,ioos:station:wmo:42047:1,2009-07-21T02:30:00Z,27.8966,-93.5973,-2.0,26.05,2 
TABS,ioos:station:wmo:42047:1,2009-07-21T03:00:00Z,27.8966,-93.5973,-2.0,25.67,2 
TABS,ioos:station:wmo:42047:1,2009-07-21T03:30:00Z,27.8966,-93.5973,-2.0,25.42,2 
TABS,ioos:station:wmo:42047:1,2009-07-21T04:00:00Z,27.8966,-93.5973,-2.0,25.24,2 
TABS,ioos:station:wmo:42047:1,2009-07-21T04:30:00Z,27.8966,-93.5973,-2.0,25.06,2 
TABS,ioos:station:wmo:42047:1,2009-07-21T05:00:00Z,27.8966,-93.5973,-2.0,24.89,2 
TABS,ioos:station:wmo:42047:1,2009-07-21T05:30:00Z,27.8966,-93.5973,-2.0,24.74,2 
TABS,ioos:station:wmo:42047:1,2009-07-21T06:00:00Z,27.8966,-93.5973,-2.0,24.62,2 
TABS,ioos:station:wmo:42047:1,2009-07-21T06:30:00Z,27.8966,-93.5973,-2.0,24.53,2 
TABS,ioos:station:wmo:42047:1,2009-07-21T07:00:00Z,27.8966,-93.5973,-2.0,24.47,2 
TABS,ioos:station:wmo:42047:1,2009-07-21T07:30:00Z,27.8966,-93.5973,-2.0,24.44,2 
TABS,ioos:station:wmo:42047:1,2009-07-21T08:00:00Z,27.8966,-93.5973,-2.0,24.41,2 
TABS,ioos:station:wmo:42047:1,2009-07-21T08:30:00Z,27.8966,-93.5973,-2.0,24.41,2 
TABS,ioos:station:wmo:42047:1,2009-07-21T09:00:00Z,27.8966,-93.5973,-2.0,24.41,2 
TABS,ioos:station:wmo:42047:1,2009-07-21T09:30:00Z,27.8966,-93.5973,-2.0,24.42,2 
TABS,ioos:station:wmo:42047:1,2009-07-21T10:00:00Z,27.8966,-93.5973,-2.0,24.44,2 
TABS,ioos:station:wmo:42047:1,2009-07-21T10:30:00Z,27.8966,-93.5973,-2.0,24.45,2 
TABS,ioos:station:wmo:42047:1,2009-07-21T11:00:00Z,27.8966,-93.5973,-2.0,24.47,2 
TABS,ioos:station:wmo:42047:1,2009-07-21T11:30:00Z,27.8966,-93.5973,-2.0,24.47,2 
TABS,ioos:station:wmo:42047:1,2009-07-21T12:00:00Z,27.8966,-93.5973,-2.0,24.49,2 
TABS,ioos:station:wmo:42047:1,2009-07-21T12:30:00Z,27.8966,-93.5973,-2.0,24.53,2 
TABS,ioos:station:wmo:42047:1,2009-07-21T13:00:00Z,27.8966,-93.5973,-2.0,24.65,2 
TABS,ioos:station:wmo:42047:1,2009-07-21T13:30:00Z,27.8966,-93.5973,-2.0,24.86,2 
TABS,ioos:station:wmo:42047:1,2009-07-21T14:00:00Z,27.8966,-93.5973,-2.0,25.18,2 
TABS,ioos:station:wmo:42047:1,2009-07-21T14:30:00Z,27.8966,-93.5973,-2.0,25.57,2 
TABS,ioos:station:wmo:42047:1,2009-07-22T00:00:00Z,27.8966,-93.5973,-2.0,34.29,2 
TABS,ioos:station:wmo:42047:1,2009-07-22T00:30:00Z,27.8966,-93.5973,-2.0,33.83,2 
TABS,ioos:station:wmo:42047:1,2009-07-22T01:00:00Z,27.8966,-93.5973,-2.0,33.01,2 
TABS,ioos:station:wmo:42047:1,2009-07-22T01:30:00Z,27.8966,-93.5973,-2.0,32.36,2 
TABS,ioos:station:wmo:42047:1,2009-07-22T02:00:00Z,27.8966,-93.5973,-2.0,31.67,2 
TABS,ioos:station:wmo:42047:1,2009-07-22T02:30:00Z,27.8966,-93.5973,-2.0,31.08,2 
TABS,ioos:station:wmo:42047:1,2009-07-22T03:00:00Z,27.8966,-93.5973,-2.0,30.53,2 
TABS,ioos:station:wmo:42047:1,2009-07-22T03:30:00Z,27.8966,-93.5973,-2.0,30.05,2 
TABS,ioos:station:wmo:42047:1,2009-07-22T04:00:00Z,27.8966,-93.5973,-2.0,29.6,2 
TABS,ioos:station:wmo:42047:1,2009-07-22T04:30:00Z,27.8966,-93.5973,-2.0,29.16,2 
TABS,ioos:station:wmo:42047:1,2009-07-22T05:00:00Z,27.8966,-93.5973,-2.0,28.74,2 
TABS,ioos:station:wmo:42047:1,2009-07-22T05:30:00Z,27.8966,-93.5973,-2.0,28.37,2 
TABS,ioos:station:wmo:42047:1,2009-07-22T06:00:00Z,27.8966,-93.5973,-2.0,28.02,2 
TABS,ioos:station:wmo:42047:1,2009-07-22T06:30:00Z,27.8966,-93.5973,-2.0,27.72,2 
TABS,ioos:station:wmo:42047:1,2009-07-22T07:00:00Z,27.8966,-93.5973,-2.0,27.43,2 
TABS,ioos:station:wmo:42047:1,2009-07-22T07:30:00Z,27.8966,-93.5973,-2.0,27.15,2 
TABS,ioos:station:wmo:42047:1,2009-07-22T08:00:00Z,27.8966,-93.5973,-2.0,26.86,2 
TABS,ioos:station:wmo:42047:1,2009-07-22T08:30:00Z,27.8966,-93.5973,-2.0,26.6,2 
TABS,ioos:station:wmo:42047:1,2009-07-22T09:00:00Z,27.8966,-93.5973,-2.0,26.39,2 
TABS,ioos:station:wmo:42047:1,2009-07-22T09:30:00Z,27.8966,-93.5973,-2.0,26.22,2 